Weather in Sanliurfa

Turkey     37°09′32″N   38°47′31″E
temp.,
°C
wind,
m/s
gust,
m/s
humid.,
%
clouds,
%
prec.,
mm/h
press.,
hPa
HPBL,
m
6 may, thu
thu600:00+21nw224433 0.1 100723
03:00+18nne22412 0.1 100711
06:00+17nne11425 0.0 100811
09:00+24ne222868 0.0 1008559
12:00+27nnw1320100 0.0 10082612
15:00+28wnw5619100 0.0 10073396
18:00+26wsw663079 0.0 10061224
21:00+20wsw7115885 0.1 1007298
7 may, fri
fri700:00+16n31075100 1.8 1009359
03:00+16n6127589 2.9 1008420
06:00+16nnw46735 0.0 1009146
09:00+21nnw78460 0.0 1010916
12:00+25n45330 0.0 10102061
15:00+27nnw66280 0.0 10092540
18:00+26n47260 0.0 10091720
21:00+21n22363 0.0 101111
8 may, sat
sat800:00+20nw22356 0.0 101212
03:00+18nw33383 0.0 101216
06:00+18nnw33414 0.0 101320
09:00+24nnw22275 0.0 1013434
12:00+28wnw34185 0.0 10121730
15:00+30wnw55159 0.0 10101913
18:00+30wsw231941 0.0 1009487
21:00+23w3532100 0.0 101152
9 may, sun
sun900:00+22wnw334490 0.0 101028
03:00+21wnw224874 0.0 101011
06:00+20wnw115037 0.0 101011
09:00+26ssw3529100 0.0 1010528
12:00+31wsw810185 0.1 10081694
15:00+32wsw111415100 0.1 10062918
18:00+30wsw1013200 0.0 10041099
21:00+24nw58370 0.0 1007154
10 may, mon
mon1000:00+19n612450 0.0 1010415
03:00+15nnw610385 0.0 1011254
06:00+12n611345 0.0 1012243
09:00+17n78195 0.0 1012517
12:00+23n55120 0.0 10121028
15:00+25nnw44110 0.0 10101498
18:00+24nne44140 0.0 1009712
21:00+18nne33200 0.0 101015